When you browse on this site, cookies collect data to enhance your experience and personalize the content and advertising you see.
Visit our Privacy Policy to learn more. By continuing to use the site, you agree to this use of cookies and data.
  • In Hungary
  • List of Countries
  • For 7 days
  • Water Temperature
  • Weather Map
  • News
  • Weather Widgets
  • user-avatar
    Login

    Hourly Weather Kranevo

    Today, 28 May, Thursday

    Time Temperature Precipitation Wind Pressure Humidity
    00:00 +11°C° 0 mm 3 mps 758 mmHg 90%
    01:00 +11°C° 0 mm 4 mps 758 mmHg 91%
    02:00 +9°C° 0 mm 5 mps 758 mmHg 92%
    03:00 +9°C° 0 mm 5 mps 758 mmHg 93%
    04:00 +9°C° 0 mm 5 mps 757 mmHg 94%
    05:00 +9°C° 0 mm 5 mps 757 mmHg 94%
    06:00 +10°C° 0 mm 6 mps 757 mmHg 89%
    07:00 +13°C° 0 mm 6 mps 757 mmHg 84%
    08:00 +14°C° 0 mm 6 mps 757 mmHg 79%
    09:00 +15°C° 0.1 mm 6 mps 757 mmHg 74%
    10:00 +17°C° 0.1 mm 5 mps 757 mmHg 69%
    11:00 +19°C° 0.1 mm 5 mps 757 mmHg 65%
    12:00 +19°C° 0.6 mm 4 mps 756 mmHg 65%
    13:00 +19°C° 0.6 mm 3 mps 756 mmHg 65%
    14:00 +20°C° 0.6 mm 2 mps 756 mmHg 65%
    15:00 +19°C° 0.5 mm 2 mps 755 mmHg 66%
    16:00 +19°C° 0.5 mm 3 mps 755 mmHg 67%
    17:00 +19°C° 0.5 mm 3 mps 755 mmHg 68%
    18:00 +18°C° 0.3 mm 2 mps 755 mmHg 72%
    19:00 +16°C° 0.3 mm 2 mps 755 mmHg 77%
    20:00 +15°C° 0.3 mm 1 mps 755 mmHg 82%
    21:00 +14°C° 0 mm 2 mps 755 mmHg 83%
    22:00 +14°C° 0 mm 2 mps 755 mmHg 83%
    23:00 +13°C° 0 mm 2 mps 755 mmHg 84%

    Tomorrow, 29 May, Friday

    Time Temperature Precipitation Wind Pressure Humidity
    00:00 +13°C° 0 mm 2 mps 755 mmHg 85%
    01:00 +12°C° 0 mm 2 mps 755 mmHg 86%
    02:00 +12°C° 0 mm 2 mps 755 mmHg 87%
    03:00 +12°C° 0 mm 2 mps 755 mmHg 86%
    04:00 +12°C° 0 mm 2 mps 755 mmHg 86%
    05:00 +12°C° 0 mm 2 mps 755 mmHg 86%
    06:00 +14°C° 0 mm 2 mps 756 mmHg 82%
    07:00 +16°C° 0 mm 2 mps 756 mmHg 78%
    08:00 +18°C° 0 mm 2 mps 756 mmHg 73%
    09:00 +19°C° 0.4 mm 2 mps 756 mmHg 69%
    10:00 +20°C° 0.4 mm 2 mps 755 mmHg 64%
    11:00 +21°C° 0.4 mm 2 mps 755 mmHg 60%
    12:00 +21°C° 1 mm 2 mps 755 mmHg 61%
    13:00 +21°C° 1 mm 2 mps 755 mmHg 62%
    14:00 +21°C° 1 mm 2 mps 755 mmHg 63%
    15:00 +20°C° 0.8 mm 2 mps 755 mmHg 67%
    16:00 +19°C° 0.8 mm 3 mps 755 mmHg 72%
    17:00 +18°C° 0.8 mm 3 mps 755 mmHg 76%
    18:00 +17°C° 0 mm 3 mps 755 mmHg 80%
    19:00 +16°C° 0 mm 3 mps 755 mmHg 83%
    20:00 +16°C° 0 mm 3 mps 755 mmHg 86%
    21:00 +14°C° 0 mm 3 mps 755 mmHg 86%
    22:00 +14°C° 0 mm 3 mps 755 mmHg 86%
    23:00 +14°C° 0 mm 2 mps 755 mmHg 86%

    Day after tomorrow, 30 May, Saturday

    Time Temperature Precipitation Wind Pressure Humidity
    00:00 +13°C° 0 mm 3 mps 755 mmHg 87%
    01:00 +12°C° 0 mm 3 mps 755 mmHg 88%
    02:00 +12°C° 0 mm 3 mps 755 mmHg 89%
    03:00 +12°C° 0 mm 3 mps 755 mmHg 90%
    04:00 +12°C° 0 mm 3 mps 755 mmHg 91%
    05:00 +11°C° 0 mm 3 mps 755 mmHg 92%
    06:00 +14°C° 0 mm 2 mps 755 mmHg 86%
    07:00 +16°C° 0 mm 2 mps 755 mmHg 81%
    08:00 +18°C° 0 mm 2 mps 755 mmHg 75%
    09:00 +19°C° 0.4 mm 2 mps 755 mmHg 72%
    10:00 +20°C° 0.4 mm 2 mps 755 mmHg 69%
    11:00 +21°C° 0.4 mm 3 mps 756 mmHg 65%
    12:00 +21°C° 0.4 mm 3 mps 755 mmHg 65%
    13:00 +21°C° 0.4 mm 4 mps 755 mmHg 65%
    14:00 +22°C° 0.4 mm 4 mps 755 mmHg 66%
    15:00 +21°C° 0.4 mm 4 mps 755 mmHg 67%
    16:00 +21°C° 0.4 mm 5 mps 755 mmHg 69%
    17:00 +21°C° 0.4 mm 5 mps 754 mmHg 71%
    18:00 +19°C° 0 mm 4 mps 754 mmHg 76%
    19:00 +18°C° 0 mm 4 mps 754 mmHg 82%
    20:00 +16°C° 0 mm 3 mps 754 mmHg 87%
    21:00 +16°C° 0 mm 3 mps 754 mmHg 87%
    22:00 +16°C° 0 mm 3 mps 755 mmHg 87%
    23:00 +15°C° 0 mm 2 mps 755 mmHg 87%

    31 May, Sunday

    Time Temperature Precipitation Wind Pressure Humidity
    00:00 +15°C° 0 mm 2 mps 754 mmHg 86%
    01:00 +15°C° 0 mm 2 mps 754 mmHg 85%
    02:00 +15°C° 0 mm 2 mps 754 mmHg 84%
    03:00 +15°C° 0 mm 2 mps 754 mmHg 84%
    04:00 +15°C° 0 mm 2 mps 754 mmHg 84%
    05:00 +14°C° 0 mm 2 mps 754 mmHg 84%
    06:00 +16°C° 0 mm 2 mps 754 mmHg 79%
    07:00 +18°C° 0 mm 3 mps 754 mmHg 74%
    08:00 +20°C° 0 mm 3 mps 754 mmHg 69%
    09:00 +21°C° 0.3 mm 3 mps 754 mmHg 66%
    10:00 +22°C° 0.3 mm 3 mps 754 mmHg 64%
    11:00 +24°C° 0.3 mm 3 mps 754 mmHg 62%
    12:00 +24°C° 0.6 mm 3 mps 754 mmHg 62%
    13:00 +24°C° 0.6 mm 3 mps 753 mmHg 62%
    14:00 +24°C° 0.6 mm 3 mps 753 mmHg 62%
    15:00 +22°C° 0.4 mm 3 mps 753 mmHg 65%
    16:00 +22°C° 0.4 mm 3 mps 753 mmHg 68%
    17:00 +22°C° 0.4 mm 3 mps 752 mmHg 70%
    18:00 +20°C° 0.2 mm 3 mps 752 mmHg 75%
    19:00 +19°C° 0.2 mm 3 mps 752 mmHg 79%
    20:00 +18°C° 0.2 mm 2 mps 752 mmHg 84%
    21:00 +17°C° 0 mm 2 mps 752 mmHg 84%
    22:00 +17°C° 0 mm 2 mps 752 mmHg 85%
    23:00 +16°C° 0 mm 2 mps 752 mmHg 85%

    1 June, Monday

    Time Temperature Precipitation Wind Pressure Humidity
    00:00 +16°C° 0 mm 2 mps 752 mmHg 85%
    01:00 +16°C° 0 mm 3 mps 752 mmHg 86%
    02:00 +14°C° 0 mm 3 mps 752 mmHg 86%
    03:00 +14°C° 0 mm 3 mps 752 mmHg 86%
    04:00 +13°C° 0 mm 3 mps 752 mmHg 86%
    05:00 +13°C° 0 mm 4 mps 752 mmHg 86%
    06:00 +13°C° 0 mm 4 mps 752 mmHg 85%
    07:00 +14°C° 0 mm 4 mps 752 mmHg 84%
    08:00 +14°C° 0 mm 5 mps 752 mmHg 83%
    09:00 +17°C° 0 mm 4 mps 752 mmHg 77%
    10:00 +19°C° 0 mm 4 mps 753 mmHg 72%
    11:00 +21°C° 0 mm 4 mps 753 mmHg 66%
    12:00 +21°C° 0.3 mm 4 mps 752 mmHg 67%
    13:00 +21°C° 0.3 mm 4 mps 752 mmHg 67%
    14:00 +22°C° 0.3 mm 4 mps 752 mmHg 67%
    15:00 +21°C° 0.6 mm 4 mps 752 mmHg 68%
    16:00 +21°C° 0.6 mm 4 mps 751 mmHg 69%
    17:00 +21°C° 0.6 mm 4 mps 751 mmHg 70%
    18:00 +20°C° 0.3 mm 4 mps 751 mmHg 75%
    19:00 +18°C° 0.3 mm 3 mps 751 mmHg 81%
    20:00 +17°C° 0.3 mm 3 mps 751 mmHg 86%
    21:00 +16°C° 0.1 mm 3 mps 752 mmHg 87%
    22:00 +16°C° 0.1 mm 3 mps 752 mmHg 87%
    23:00 +14°C° 0.1 mm 3 mps 752 mmHg 88%

    2 June, Tuesday

    Time Temperature Precipitation Wind Pressure Humidity
    00:00 +13°C° 0 mm 3 mps 752 mmHg 89%
    01:00 +13°C° 0 mm 3 mps 752 mmHg 91%
    02:00 +12°C° 0 mm 3 mps 752 mmHg 92%
    03:00 +12°C° 0 mm 3 mps 752 mmHg 93%
    04:00 +12°C° 0 mm 3 mps 752 mmHg 93%
    05:00 +12°C° 0 mm 3 mps 752 mmHg 94%
    06:00 +13°C° 0 mm 4 mps 752 mmHg 90%
    07:00 +14°C° 0 mm 4 mps 752 mmHg 86%
    08:00 +15°C° 0 mm 4 mps 753 mmHg 82%
    09:00 +17°C° 0 mm 4 mps 753 mmHg 81%
    10:00 +17°C° 0 mm 4 mps 753 mmHg 80%
    11:00 +17°C° 0 mm 4 mps 753 mmHg 79%
    12:00 +18°C° 0.1 mm 4 mps 753 mmHg 74%
    13:00 +20°C° 0.1 mm 3 mps 753 mmHg 69%
    14:00 +21°C° 0.1 mm 3 mps 753 mmHg 64%
    15:00 +20°C° 0.2 mm 3 mps 753 mmHg 66%
    16:00 +20°C° 0.2 mm 3 mps 753 mmHg 68%
    17:00 +19°C° 0.2 mm 3 mps 753 mmHg 70%
    18:00 +18°C° 0 mm 3 mps 753 mmHg 75%
    19:00 +15°C° 0 mm 4 mps 753 mmHg 81%
    20:00 +13°C° 0 mm 4 mps 754 mmHg 86%
    21:00 +13°C° 0 mm 4 mps 754 mmHg 88%
    22:00 +12°C° 0 mm 4 mps 754 mmHg 91%
    23:00 +11°C° 0 mm 4 mps 754 mmHg 93%
    Show more